Find Zhijiang-2

NORAD ID: 63983 Int'l Des: NNA 2025-100 Owner: GUOX/ZJLAB Country: CN operational
LEOCIRCULARRETROGRADESSO

当前视图

正在加载3D地球...

About Zhijiang-2

Zhijiang-2 (NORAD 63983) is a satellite launched May 14, 2025 by GUOX/ZJLAB of CN. It operates in LEO, CIRCULAR, RETROGRADE, SSO orbit with a mass of 100.00 kg.

即将过境

Passes for default location (London). Set your location on the main map for personalized predictions.

高度历史

Loading altitude history...

两行轨道根数

1 63983U 25100B 26194.83902376 .00019086 00000-0 47616-3 0 9998
2 63983 97.3629 272.0455 0009683 189.7253 170.3807 15.40189488 65019
Epoch: Jul 13, 2026 • Age: 8 hours

当前状态

高度 460.7 km
远地点 / 近地点 N/A
速度 7.64 km/s
星下点 79.46°N, 127.7°W
发射日期 May 14, 2025
运行时间 1.1 years
类型 other

技术详情

分类 Payload
质量 100.00 kg
干质量 100.00 kg
总质量 100.00 kg
长度 0.50 m
直径 0.30 m
跨度 0.50 m
形状 Box + 2 pan
制造商 GUOX
平台类型 XSD Large
阶段状态 In Orbit
所有者/国家 GUOX/ZJLAB/CN

Most Searched